| time (UTC) | temp F | wind direction | speed knots | gust knots | rain 1hr in | rain 24hr in | rain mn in | humidity % | barometer mb |
| 20260503224123 | 60 | 175 | 4.3 | 10.4 | 0.00 | 0.01 | 0.01 | 72 | 1015.6 |
| 20260503223122 | 60 | 169 | 4.3 | 10.4 | 0.00 | 0.01 | 0.01 | 72 | 1015.5 |
| 20260503222123 | 61 | 220 | 3.5 | 11.3 | 0.00 | 0.01 | 0.01 | 72 | 1015.5 |
| 20260503221123 | 61 | 207 | 4.3 | 8.7 | 0.00 | 0.01 | 0.01 | 73 | 1015.5 |
| 20260503220144 | 61 | 194 | 3.5 | 9.6 | 0.00 | 0.01 | 0.01 | 74 | 1015.3 |
| 20260503215144 | 61 | 190 | 3.5 | 8.7 | 0.00 | 0.01 | 0.01 | 76 | 1015.4 |
| 20260503214122 | 61 | 206 | 3.5 | 7.0 | 0.00 | 0.01 | 0.01 | 75 | 1015.3 |
| 20260503213122 | 61 | 201 | 5.2 | 10.4 | 0.00 | 0.01 | 0.01 | 75 | 1015.2 |
| 20260503212122 | 61 | 152 | 2.6 | 6.1 | 0.00 | 0.01 | 0.01 | 74 | 1015.3 |
| 20260503211122 | 61 | 164 | 3.5 | 10.4 | 0.00 | 0.01 | 0.01 | 75 | 1015.3 |
| 20260503210122 | 61 | 210 | 3.5 | 7.8 | 0.00 | 0.01 | 0.01 | 75 | 1015.2 |
| 20260503205122 | 61 | 172 | 2.6 | 7.0 | 0.00 | 0.01 | 0.01 | 74 | 1015.3 |
| 20260503204123 | 61 | 175 | 2.6 | 6.1 | 0.00 | 0.01 | 0.01 | 75 | 1015.4 |
| 20260503203123 | 61 | 214 | 2.6 | 10.4 | 0.00 | 0.01 | 0.01 | 74 | 1015.4 |
| 20260503202122 | 61 | 205 | 3.5 | 7.8 | 0.00 | 0.01 | 0.01 | 74 | 1015.5 |
| 20260503201123 | 60 | 217 | 2.6 | 7.0 | 0.00 | 0.01 | 0.01 | 75 | 1015.5 |
| 20260503200122 | 60 | 210 | 3.5 | 8.7 | 0.00 | 0.01 | 0.01 | 77 | 1015.5 |
| 20260503195123 | 59 | 236 | 2.6 | 7.0 | 0.00 | 0.01 | 0.01 | 79 | 1015.4 |
| 20260503194144 | 59 | 211 | 2.6 | 7.0 | 0.00 | 0.01 | 0.01 | 80 | 1015.5 |
| 20260503193123 | 58 | 215 | 2.6 | 7.0 | 0.00 | 0.01 | 0.01 | 81 | 1015.4 |
| 20260503192122 | 57 | 187 | 2.6 | 7.8 | 0.00 | 0.01 | 0.01 | 82 | 1015.5 |
| 20260503191123 | 57 | 158 | 2.6 | 7.0 | 0.00 | 0.01 | 0.01 | 83 | 1015.5 |
| 20260503190122 | 57 | 189 | 2.6 | 7.0 | 0.00 | 0.01 | 0.01 | 84 | 1015.5 |
| 20260503185122 | 57 | 210 | 2.6 | 6.1 | 0.00 | 0.01 | 0.01 | 84 | 1015.4 |
| 20260503184122 | 57 | 230 | 2.6 | 7.8 | 0.00 | 0.01 | 0.01 | 85 | 1015.4 |
| 20260503183122 | 57 | 208 | 2.6 | 7.8 | 0.00 | 0.01 | 0.01 | 85 | 1015.4 |
| 20260503182123 | 56 | 203 | 2.6 | 7.8 | 0.00 | 0.01 | 0.01 | 86 | 1015.3 |
| 20260503181144 | 56 | 236 | 3.5 | 3.5 | 0.00 | 0.01 | 0.01 | 87 | 1015.4 |
| 20260503180123 | 56 | 248 | 3.5 | 7.0 | 0.00 | 0.01 | 0.01 | 88 | 1015.3 |
| 20260503175122 | 56 | 238 | 2.6 | 7.8 | 0.00 | 0.01 | 0.01 | 89 | 1015.4 |
| 20260503174122 | 55 | 222 | 3.5 | 7.0 | 0.00 | 0.01 | 0.01 | 90 | 1015.3 |
| 20260503173122 | 55 | 240 | 3.5 | 9.6 | 0.00 | 0.01 | 0.01 | 91 | 1015.2 |
| 20260503172123 | 55 | 165 | 2.6 | 6.1 | 0.00 | 0.01 | 0.01 | 91 | 1015.2 |
| 20260503171123 | 54 | 209 | 2.6 | 4.3 | 0.01 | 0.01 | 0.01 | 91 | 1015.3 |
| 20260503170122 | 55 | 297 | 1.7 | 4.3 | 0.01 | 0.01 | 0.01 | 92 | 1015.2 |
| 20260503160122 | 53 | 168 | 0.9 | 4.3 | 0.00 | 0.00 | 0.00 | 91 | 1015.2 |
| 20260503150143 | 52 | 159 | 0.9 | 3.5 | 0.00 | 0.00 | 0.00 | 91 | 1014.6 |
| 20260503140122 | 52 | 239 | 0.9 | 2.6 | 0.00 | 0.00 | 0.00 | 90 | 1014.0 |
| 20260503131122 | 52 | 240 | 0.9 | 3.5 | 0.00 | 0.00 | 0.00 | 90 | 1013.4 |
| 20260503130122 | 52 | 241 | 0.9 | 3.5 | 0.00 | 0.00 | 0.00 | 90 | 1013.1 |
| 20260503120122 | 52 | 238 | 0.0 | 0.9 | 0.00 | 0.00 | 0.00 | 90 | 1013.2 |
| 20260503110122 | 52 | 221 | 0.9 | 4.3 | 0.00 | 0.00 | 0.00 | 90 | 1013.2 |
| 20260503100122 | 52 | 243 | 2.6 | 7.8 | 0.00 | 0.00 | 0.00 | 90 | 1013.2 |
| 20260503090143 | 52 | 252 | 2.6 | 7.8 | 0.00 | 0.00 | 0.00 | 90 | 1013.6 |
| 20260503081143 | 52 | 250 | 1.7 | 4.3 | 0.00 | 0.00 | 0.00 | 90 | 1014.3 |
| 20260503080122 | 52 | 257 | 1.7 | 3.5 | 0.00 | 0.00 | 0.00 | 90 | 1014.4 |
| 20260503072122 | 52 | 275 | 2.6 | 6.1 | 0.00 | 0.00 | 0.00 | 90 | 1014.2 |
| 20260503071122 | 52 | 268 | 3.5 | 7.0 | 0.00 | 0.00 | 0.00 | 90 | 1014.1 |
| 20260503060143 | 53 | 258 | 1.7 | 4.3 | 0.00 | 0.00 | 0.00 | 90 | 1014.3 |
| 20260503055122 | 52 | 262 | 2.6 | 7.0 | 0.00 | 0.00 | 0.00 | 90 | 1014.5 |
| 20260503054122 | 52 | 273 | 2.6 | 7.0 | 0.00 | 0.00 | 0.00 | 90 | 1014.6 |
| 20260503053122 | 52 | 266 | 2.6 | 7.0 | 0.00 | 0.00 | 0.00 | 90 | 1014.7 |
| 20260503052122 | 52 | 268 | 3.5 | 7.8 | 0.00 | 0.00 | 0.00 | 90 | 1014.9 |
| 20260503051122 | 53 | 265 | 3.5 | 6.1 | 0.00 | 0.00 | 0.00 | 90 | 1014.7 |
| 20260503050122 | 53 | 261 | 2.6 | 6.1 | 0.00 | 0.00 | 0.00 | 90 | 1014.8 |
| 20260503045122 | 53 | 265 | 2.6 | 7.0 | 0.00 | 0.00 | 0.00 | 90 | 1014.7 |
| 20260503044122 | 53 | 269 | 3.5 | 7.0 | 0.00 | 0.00 | 0.00 | 90 | 1014.7 |
| 20260503043122 | 53 | 266 | 3.5 | 7.0 | 0.00 | 0.00 | 0.00 | 90 | 1014.7 |
| 20260503042122 | 53 | 276 | 3.5 | 7.8 | 0.00 | 0.00 | 0.00 | 90 | 1014.5 |
| 20260503041122 | 53 | 250 | 3.5 | 8.7 | 0.00 | 0.00 | 0.00 | 90 | 1014.6 |
| 20260503040122 | 53 | 251 | 2.6 | 7.0 | 0.00 | 0.00 | 0.00 | 90 | 1014.5 |
| 20260503035122 | 53 | 260 | 2.6 | 6.1 | 0.00 | 0.00 | 0.00 | 90 | 1014.5 |
| 20260503034122 | 53 | 270 | 3.5 | 8.7 | 0.00 | 0.00 | 0.00 | 89 | 1014.4 |
| 20260503033122 | 53 | 258 | 3.5 | 7.8 | 0.00 | 0.00 | 0.00 | 89 | 1014.4 |
| 20260503032122 | 53 | 260 | 3.5 | 7.8 | 0.00 | 0.00 | 0.00 | 89 | 1014.3 |
| 20260503031122 | 53 | 255 | 4.3 | 9.6 | 0.00 | 0.00 | 0.00 | 89 | 1014.2 |
| 20260503030122 | 53 | 249 | 4.3 | 9.6 | 0.00 | 0.00 | 0.00 | 88 | 1013.8 |
| 20260503025122 | 53 | 275 | 3.5 | 7.8 | 0.00 | 0.00 | 0.00 | 88 | 1013.9 |
| 20260503024122 | 53 | 258 | 4.3 | 8.7 | 0.00 | 0.00 | 0.00 | 88 | 1013.9 |
| 20260503023122 | 53 | 270 | 4.3 | 8.7 | 0.00 | 0.00 | 0.00 | 87 | 1013.8 |
| 20260503022122 | 53 | 276 | 4.3 | 9.6 | 0.00 | 0.00 | 0.00 | 87 | 1013.9 |
| 20260503021122 | 53 | 266 | 3.5 | 8.7 | 0.00 | 0.00 | 0.00 | 87 | 1014.0 |
| 20260503020123 | 54 | 267 | 4.3 | 10.4 | 0.00 | 0.00 | 0.00 | 87 | 1014.1 |
| 20260503015122 | 54 | 261 | 2.6 | 8.7 | 0.00 | 0.00 | 0.00 | 86 | 1014.2 |
| 20260503014122 | 54 | 243 | 2.6 | 8.7 | 0.00 | 0.00 | 0.00 | 86 | 1014.1 |
| 20260503013122 | 54 | 266 | 4.3 | 9.6 | 0.00 | 0.00 | 0.00 | 86 | 1014.1 |
| 20260503012122 | 54 | 258 | 3.5 | 7.0 | 0.00 | 0.00 | 0.00 | 86 | 1014.3 |
| 20260503011122 | 54 | 254 | 2.6 | 7.0 | 0.00 | 0.00 | 0.00 | 86 | 1014.3 |
| 20260503010122 | 54 | 263 | 4.3 | 7.8 | 0.00 | 0.00 | 0.00 | 85 | 1014.4 |
| 20260503005122 | 54 | 265 | 3.5 | 7.8 | 0.00 | 0.00 | 0.00 | 85 | 1014.4 |
| 20260503004122 | 55 | 251 | 3.5 | 7.0 | 0.00 | 0.00 | 0.00 | 85 | 1014.4 |
| 20260503003122 | 55 | 261 | 6.1 | 9.6 | 0.00 | 0.00 | 0.00 | 85 | 1014.4 |
| 20260503002144 | 55 | 255 | 3.5 | 9.6 | 0.00 | 0.00 | 0.00 | 85 | 1014.4 |
| 20260503001122 | 55 | 243 | 2.6 | 7.0 | 0.00 | 0.00 | 0.00 | 85 | 1014.4 |
| 20260503000122 | 55 | 247 | 4.3 | 4.3 | 0.00 | 0.00 | 0.00 | 84 | 1014.4 |
| 20260502235122 | 55 | 254 | 4.3 | 9.6 | 0.00 | 0.00 | 0.00 | 84 | 1014.6 |
| 20260502234122 | 55 | 260 | 4.3 | 9.6 | 0.00 | 0.00 | 0.00 | 84 | 1014.5 |
| 20260502233143 | 55 | 246 | 3.5 | 9.6 | 0.00 | 0.00 | 0.00 | 84 | 1014.7 |
| 20260502232122 | 56 | 262 | 3.5 | 7.8 | 0.00 | 0.00 | 0.00 | 85 | 1014.7 |
| 20260502231143 | 56 | 265 | 3.5 | 7.8 | 0.00 | 0.00 | 0.00 | 85 | 1014.9 |
| 20260502230122 | 56 | 275 | 5.2 | 9.6 | 0.00 | 0.00 | 0.00 | 84 | 1015.0 |
| 20260502225122 | 55 | 220 | 2.6 | 7.0 | 0.00 | 0.00 | 0.00 | 85 | 1015.0 |